Location: Bremen
(53.0793°N, 8.8017°E)
Time: 11:46:18
(UTC+01:00)

Vanguard 1 Rocket - Pass Details

Date: 03 December 2021
Orbit: 651 x 4224 km, 34.3° (Epoch: 21 January)

Event Time Altitude Azimuth Distance (km) Brightness Sun altitude
Rises 08:18:41 0° 270° (W) 6,543 11.3 -0.8°
Reaches altitude 10° 08:23:15 10° 261° (W) 5,982 11.2 -0.3°
Maximum altitude 08:39:26 31° 209° (SSW) 5,498 11.6 1.6°
Drops below altitude 10° 08:59:38 10° 158° (SSE) 7,362 13.5 3.8°
Sets 09:06:18 0° 150° (SSE) 8,195 14.4 4.4°
